#timestamp,LO_Frequency,Hit,StdDev 
1653030015.3,286047004.0,N
1653030035.1,286047001.3,N
1653030055.9,286047001.4,N
1653030075.7,286047004.4,N
1653030095.5,286047002.0,N
1653030115.4,286047001.6,N
1653030135.2,286047001.5,N
1653030155.0,286047001.9,N
1653030156.0,286047001.9,N
1653030175.8,286047002.0,N
1653030195.6,286047002.2,N
1653030215.5,286047001.5,N
1653030235.3,286047001.8,N
1653030255.1,286047001.3,N
1653030275.9,286047004.3,N
1653030295.7,286047001.4,N
1653030315.6,286047003.5,N
1653030335.4,286047003.7,N
1653030355.2,286047001.5,N
1653030375.1,286047004.2,N
1653030376.0,286047004.2,N
1653030395.8,286047003.6,N
1653030415.6,286047001.7,N
1653030435.1,286047004.4,N
1653030436.0,286047004.4,N
1653030455.8,286047001.4,N
1653030475.6,286047004.4,Y
1653030495.5,286047002.7,P
1653030515.3,286047001.6,P
1653030535.2,286047002.2,P
1653030555.9,286047000.3,N
1653030575.7,286047002.7,Y
1653030595.6,286046999.2,P
1653030615.4,286046999.0,N
1653030635.3,286046996.9,N
1653030655.1,286046999.5,N
1653030656.0,286046999.5,N
1653030675.8,286046998.7,N
1653030695.7,286046998.5,N
1653030715.5,286046998.6,N
1653030735.4,286046998.6,N
1653030755.2,286047001.2,N
1653030775.0,286046998.3,N
1653030775.9,286046998.3,N
1653030795.8,286046998.3,N
1653030815.6,286046999.4,N
1653030835.4,286046999.5,N
1653030855.3,286046999.5,N
1653030875.1,286046999.6,N
1653030895.9,286046998.6,N
1653030915.7,286046999.0,N
1653030935.5,286046998.1,N
1653030955.4,286046998.5,N
1653030975.2,286046998.3,N
1653030995.0,286046998.1,N
1653030996.0,286046998.1,N
1653031015.8,286046998.2,N
1653031035.6,286046998.8,N
1653031055.5,286046999.0,N
1653031075.3,286046998.5,N
1653031095.1,286046998.3,N
1653031115.9,286046998.2,N
1653031135.7,286047000.8,N
1653031155.6,286047000.8,N
1653031175.4,286047000.9,N
1653031195.2,286047000.8,N
1653031215.1,286047001.0,N
1653031216.0,286047001.0,N
1653031235.8,286047001.0,N
1653031255.7,286046998.3,N
1653031275.5,286046998.8,N
1653031295.3,286046998.3,N
1653031315.2,286046998.7,N
1653031335.0,286046998.1,N
1653031365.9,286046998.2,E
1653031375.9,286047000.5,N
1653031395.7,286047000.1,P
1653031415.5,286047002.3,P
1653031435.4,286047000.0,N
1653031455.2,286046999.8,N
1653031475.1,286047002.7,N
1653031476.0,286047002.7,N
1653031495.8,286046999.7,N
1653031515.6,286047002.4,N
1653031535.5,286047001.6,N
1653031555.3,286047002.1,N
1653031575.1,286047001.9,N
1653031595.9,286047001.6,N
1653031615.7,286047001.8,N
1653031635.6,286047002.4,N
1653031655.4,286047002.2,N
1653031675.2,286047002.1,N
1653031695.1,286047002.2,N
1653031696.0,286047002.2,N
1653031715.8,286047001.8,N
1653031735.6,286047001.9,N
1653031755.5,286047004.1,Y
1653031775.3,286047000.9,P
1653031795.2,286047000.4,N
1653031815.9,286047000.9,N
1653031835.7,286047000.9,N
1653031855.6,286047000.4,N
1653031875.4,286047001.1,N
1653031895.3,286047000.9,N
1653031915.1,286046998.4,Y
1653031916.0,286046998.4,P
1653031935.8,286046999.3,N
1653031955.7,286046999.3,N
1653031975.5,286046998.3,N
1653031995.4,286047001.2,N
1653032015.2,286046998.2,N
1653032035.0,286046998.4,N
1653032035.9,286046998.4,N
1653032055.8,286046998.5,N
1653032075.6,286046998.3,N
1653032095.4,286046998.3,N
1653032115.3,286046998.5,N
1653032135.1,286046998.9,N
1653032155.9,286046998.4,N
1653032175.7,286046999.4,N
1653032195.5,286046998.8,N
1653032215.4,286046999.3,N
1653032235.2,286046999.5,N
1653032255.0,286046998.5,N
1653032255.9,286046998.5,N
1653032275.8,286047001.1,N
1653032295.6,286047001.0,N
1653032315.5,286047001.0,N
1653032335.3,286047000.8,N
1653032355.1,286047000.3,N
1653032375.9,286047000.3,N
1653032395.7,286047000.2,N
1653032415.5,286046998.1,N
1653032435.4,286046998.1,N
1653032455.2,286046998.2,N
1653032475.1,286047000.3,N
1653032476.0,286047000.3,N
1653032495.8,286046998.2,N
1653032515.6,286046999.4,N
1653032535.5,286046999.3,N
1653032555.3,286046998.2,N
1653032575.1,286047000.6,N
1653032595.9,286046998.1,N
1653032615.7,286047000.9,N
1653032635.6,286047001.1,N
1653032655.4,286047000.9,N
1653032675.2,286046998.8,N
1653032695.1,286046998.3,N
1653032696.0,286046998.3,N
1653032715.8,286046998.3,N
1653032735.6,286046998.2,N
1653032755.5,286047000.3,N
1653032775.3,286047000.0,N
1653032795.2,286047000.6,N
1653032815.0,286047000.2,N
1653032815.9,286047000.2,N
1653032835.8,286047002.6,N
1653032855.6,286047000.5,N
1653032875.4,286047000.2,N
1653032895.3,286046999.9,N
1653032915.1,286047000.7,N
1653032935.8,286047002.8,N
1653032955.7,286047001.9,N
1653032975.5,286047002.5,N
1653032995.4,286047002.6,N
1653033015.2,286046999.8,N
1653033035.0,286047001.7,N
1653033035.9,286047001.7,N
1653033055.8,286046999.7,N
1653033075.6,286047002.3,N
1653033095.5,286046999.9,N
1653033115.3,286047000.3,N
1653033135.1,286047001.0,N
1653033155.9,286046999.9,N
1653033175.7,286046999.8,N
1653033195.5,286047002.6,N
1653033215.4,286047002.0,N
1653033235.2,286047003.9,N
1653033255.1,286046999.8,N
1653033256.0,286046999.8,N
1653033275.8,286047002.3,N
1653033295.6,286046999.7,N
1653033315.5,286047002.6,N
1653033335.3,286047002.7,N
1653033355.1,286047002.4,N
1653033375.9,286047000.6,N
1653033395.7,286047002.7,N
1653033415.6,286047002.5,N
1653033435.4,286046999.9,N
1653033455.2,286047002.4,N
1653033475.1,286047002.4,N
1653033476.0,286047002.4,N
1653033495.8,286047002.7,N
1653033515.6,286047000.1,N
1653033535.5,286047002.6,N
1653033555.3,286047001.6,N
1653033575.2,286047002.1,N
1653033595.9,286047002.3,N
